Date String (YYYY-MM-DD hh:mm:ss) UTC,Instrument flags,absolute air pressure of the measurement (hPa),sample flow rate (lpm),inlet stack bypass flow (lpm),air temperature of the measurement (°C),ambient temperature measured by the external sensor (°C),aerosol sample conditioner tube jacket temperature (°C),OPC LED temperature (°C),internal box temperature (°C),relative humidity of the measurement (%),span deviation,mass concentration of particles derived from Lorenz-Mie calculation of OPC scattering (μg/m³),mass concentration of particles derived from Lorenz-Mie calculation of OPC scattering (μg/m³),mass concentration of particles derived from Lorenz-Mie calculation of OPC scattering (μg/m³)
DateTimeUTC,F1_M11,P_M11,Q1_M11,Q2_M11,T1_M11,T2_M11,T3_M11,T4_M11,T5_M11,U1_M11,ZSPAN_M11,X0_M11,X2_M11,X1_M11
2023-08-11 01:00:00,SystemResetWarning,0828.3,4.99,000.00,029.1,027.7,000.0,037.4,030.9,16.8,0000.0,0010.97,0004.29,0003.81
2023-08-11 01:01:00,SystemResetWarning,0828.3,5.00,000.00,029.1,026.1,000.0,037.3,030.6,15.9,0000.0,0010.98,0004.29,0003.80
2023-08-11 01:02:00,SystemResetWarning,0828.2,5.01,000.00,029.0,024.8,000.0,037.2,030.3,16.1,0000.0,0010.92,0004.28,0003.80
2023-08-11 01:03:00,SystemResetWarning,0828.2,5.01,000.00,029.0,025.0,000.0,037.1,030.3,16.3,0000.0,0009.71,0004.27,0003.79
2023-08-11 01:04:00,SystemResetWarning,0828.3,4.99,000.00,028.9,025.4,000.0,037.2,030.2,15.8,0000.0,0008.25,0004.23,0003.78
2023-08-11 01:05:00,SystemResetWarning,0828.3,5.01,000.00,028.9,025.9,000.0,037.2,030.3,16.1,0000.0,0008.17,0004.23,0003.78
2023-08-11 01:06:00,SystemResetWarning,0828.3,5.00,000.00,028.9,026.3,000.0,037.3,030.5,16.3,0000.0,0008.47,0004.24,0003.77
2023-08-11 01:07:00,SystemResetWarning,0828.3,5.00,000.00,028.9,026.7,000.0,037.3,030.6,16.6,0000.0,0007.51,0004.19,0003.75
2023-08-11 01:08:00,SystemResetWarning,0828.4,5.00,000.00,029.0,027.1,000.0,037.3,030.7,16.7,0000.0,0007.41,0004.16,0003.74
2023-08-11 01:09:00,SystemResetWarning,0828.3,5.00,000.00,029.0,027.4,000.0,037.3,030.8,16.4,0000.0,0008.16,0004.18,0003.75
2023-08-11 01:10:00,SystemResetWarning,0828.3,5.00,000.00,029.0,027.6,000.0,037.4,030.8,15.4,0000.0,0008.58,0004.16,0003.75
2023-08-11 01:11:00,SystemResetWarning,0828.4,5.00,000.00,029.1,027.9,000.0,037.4,030.9,15.5,0000.0,0008.74,0004.15,0003.74
2023-08-11 01:12:00,SystemResetWarning,0828.3,4.99,000.00,029.2,028.0,000.0,037.4,031.0,15.5,0000.0,0008.68,0004.14,0003.73
2023-08-11 01:13:00,SystemResetWarning,0828.3,4.98,000.00,029.2,026.7,000.0,037.3,030.8,15.3,0000.0,0008.66,0004.12,0003.72
2023-08-11 01:14:00,SystemResetWarning,0828.4,5.01,000.00,029.1,025.1,000.0,037.2,030.5,15.6,0000.0,0009.25,0004.13,0003.72
2023-08-11 01:15:00,SystemResetWarning,0828.3,5.01,000.00,029.0,025.0,000.0,037.2,030.4,15.9,0000.0,0009.38,0004.12,0003.71
2023-08-11 01:16:00,SystemResetWarning,0828.4,5.00,000.00,029.0,025.4,000.0,037.2,030.3,15.9,0000.0,0009.61,0004.14,0003.70
2023-08-11 01:17:00,SystemResetWarning,0828.3,5.00,000.00,028.9,025.8,000.0,037.2,030.4,16.1,0000.0,0009.31,0004.15,0003.71
2023-08-11 01:18:00,SystemResetWarning,0828.4,5.01,000.00,028.9,026.3,000.0,037.3,030.5,15.8,0000.0,0009.64,0004.16,0003.71
2023-08-11 01:19:00,SystemResetWarning,0828.4,5.00,000.00,028.9,026.7,000.0,037.3,030.6,15.9,0000.0,0010.15,0004.19,0003.71
2023-08-11 01:20:00,SystemResetWarning,0828.4,5.00,000.00,029.0,027.0,000.0,037.3,030.7,16.1,0000.0,0010.01,0004.21,0003.70
2023-08-11 01:21:00,SystemResetWarning,0828.4,4.99,000.00,029.0,027.3,000.0,037.4,030.8,15.6,0000.0,0009.75,0004.21,0003.70
2023-08-11 01:22:00,SystemResetWarning,0828.4,5.00,000.00,029.1,027.6,000.0,037.4,030.9,15.5,0000.0,0009.58,0004.21,0003.69
2023-08-11 01:23:00,SystemResetWarning,0828.5,5.01,000.00,029.1,027.8,000.0,037.4,030.9,15.6,0000.0,0009.63,0004.21,0003.68
2023-08-11 01:24:00,SystemResetWarning,0828.4,5.00,000.00,029.1,026.9,000.0,037.4,030.8,15.8,0000.0,0009.70,0004.24,0003.68
2023-08-11 01:25:00,SystemResetWarning,0828.4,5.01,000.00,029.1,025.8,000.0,037.3,030.6,15.9,0000.0,0009.21,0004.23,0003.68
2023-08-11 01:26:00,SystemResetWarning,0828.4,5.01,000.00,029.1,025.9,000.0,037.2,030.5,16.1,0000.0,0009.13,0004.29,0003.68
2023-08-11 01:27:00,SystemResetWarning,0828.5,5.01,000.00,029.0,026.1,000.0,037.3,030.4,16.2,0000.0,0008.76,0004.26,0003.67
2023-08-11 01:28:00,SystemResetWarning,0828.5,4.99,000.00,029.0,026.5,000.0,037.3,030.5,16.1,0000.0,0008.64,0004.22,0003.67
2023-08-11 01:29:00,SystemResetWarning,0828.5,4.99,000.00,029.0,026.8,000.0,037.4,030.7,16.2,0000.0,0008.71,0004.22,0003.66
2023-08-11 01:30:00,SystemResetWarning,0828.5,5.00,000.00,029.1,027.2,000.0,037.4,030.8,16.2,0000.0,0007.93,0004.22,0003.66
2023-08-11 01:31:00,SystemResetWarning,0828.5,5.01,000.00,029.1,027.5,000.0,037.4,030.9,16.1,0000.0,0007.60,0004.19,0003.66
2023-08-11 01:32:00,SystemResetWarning,0828.5,5.00,000.00,029.2,027.5,000.0,037.4,030.9,16.1,0000.0,0007.24,0004.22,0003.65
2023-08-11 01:33:00,SystemResetWarning,0828.5,4.98,000.00,029.1,025.8,000.0,037.3,030.6,16.3,0000.0,0007.44,0004.26,0003.68
2023-08-11 01:34:00,SystemResetWarning,0828.5,5.01,000.00,029.1,024.6,000.0,037.2,030.4,16.4,0000.0,0007.80,0004.29,0003.70
2023-08-11 01:35:00,SystemResetWarning,0828.5,5.01,000.00,029.0,024.8,000.0,037.2,030.3,16.7,0000.0,0008.22,0004.29,0003.71
2023-08-11 01:36:00,SystemResetWarning,0828.5,5.00,000.00,028.9,025.2,000.0,037.2,030.2,16.8,0000.0,0008.79,0004.30,0003.73
2023-08-11 01:37:00,SystemResetWarning,0828.5,4.99,000.00,028.9,025.6,000.0,037.2,030.3,16.7,0000.0,0008.73,0004.28,0003.76
2023-08-11 01:38:00,SystemResetWarning,0828.6,5.00,000.00,028.9,026.1,000.0,037.3,030.4,16.8,0000.0,0009.56,0004.32,0003.79
2023-08-11 01:39:00,SystemResetWarning,0828.6,5.01,000.00,028.9,026.5,000.0,037.3,030.5,16.9,0000.0,0009.85,0004.34,0003.80
2023-08-11 01:40:00,SystemResetWarning,0828.6,4.98,000.00,028.9,026.9,000.0,037.3,030.6,16.9,0000.0,0009.81,0004.34,0003.82
2023-08-11 01:41:00,SystemResetWarning,0828.6,5.00,000.00,029.0,027.2,000.0,037.3,030.7,16.9,0000.0,0010.07,0004.37,0003.83
2023-08-11 01:42:00,SystemResetWarning,0828.6,5.01,000.00,029.0,027.5,000.0,037.4,030.8,16.2,0000.0,0010.75,0004.40,0003.86
2023-08-11 01:43:00,SystemResetWarning,0828.6,5.01,000.00,029.1,027.7,000.0,037.4,030.9,15.9,0000.0,0010.83,0004.44,0003.88
2023-08-11 01:44:00,SystemResetWarning,0828.7,5.00,000.00,029.1,027.8,000.0,037.4,030.9,16.1,0000.0,0010.85,0004.45,0003.89
2023-08-11 01:45:00,SystemResetWarning,0828.7,4.98,000.00,029.1,026.6,000.0,037.3,030.7,16.7,0000.0,0011.00,0004.47,0003.89
2023-08-11 01:46:00,SystemResetWarning,0828.6,5.00,000.00,029.1,025.6,000.0,037.2,030.5,17.0,0000.0,0010.68,0004.47,0003.89
2023-08-11 01:47:00,SystemResetWarning,0828.6,5.01,000.00,029.0,025.8,000.0,037.2,030.4,16.7,0000.0,0010.02,0004.46,0003.89
2023-08-11 01:48:00,SystemResetWarning,0828.6,5.00,000.00,029.0,026.1,000.0,037.3,030.4,17.0,0000.0,0010.15,0004.49,0003.89
2023-08-11 01:49:00,SystemResetWarning,0828.6,5.00,000.00,029.0,026.4,000.0,037.3,030.5,16.6,0000.0,0009.64,0004.49,0003.88
2023-08-11 01:50:00,SystemResetWarning,0828.6,5.01,000.00,029.0,026.8,000.0,037.4,030.6,16.9,0000.0,0009.19,0004.49,0003.88
2023-08-11 01:51:00,SystemResetWarning,0828.6,5.00,000.00,029.0,027.2,000.0,037.4,030.7,16.8,0000.0,0009.30,0004.53,0003.89
2023-08-11 01:52:00,SystemResetWarning,0828.6,5.00,000.00,029.1,027.4,000.0,037.4,030.8,16.5,0000.0,0009.11,0004.49,0003.90
2023-08-11 01:53:00,SystemResetWarning,0828.6,5.00,000.00,029.1,027.7,000.0,037.5,030.9,16.8,0000.0,0008.76,0004.46,0003.89
2023-08-11 01:54:00,SystemResetWarning,0828.6,4.99,000.00,029.2,027.5,000.0,037.4,030.9,16.1,0000.0,0008.89,0004.42,0003.89
2023-08-11 01:55:00,SystemResetWarning,0828.6,4.99,000.00,029.1,025.9,000.0,037.3,030.6,15.9,0000.0,0008.78,0004.38,0003.89
2023-08-11 01:56:00,SystemResetWarning,0828.6,5.01,000.00,029.1,025.6,000.0,037.2,030.5,15.5,0000.0,0008.34,0004.36,0003.89
2023-08-11 01:57:00,SystemResetWarning,0828.6,5.00,000.00,029.0,025.8,000.0,037.3,030.4,15.8,0000.0,0008.35,0004.39,0003.89
2023-08-11 01:58:00,SystemResetWarning,0828.6,4.99,000.00,029.0,026.2,000.0,037.3,030.4,16.2,0000.0,0008.42,0004.40,0003.89
2023-08-11 01:59:00,SystemResetWarning,0828.6,5.00,000.00,029.0,026.6,000.0,037.4,030.6,16.1,0000.0,0008.56,0004.35,0003.89
